Location: Lancaster
(54.0470°N, 2.8020°W)
Time: 14:51:07
(UTC+01:00)

COSMOS 2428 - Visible Passes

Search period start: 03 May 2015 00:00
Search period end: 13 May 2015 00:00
Orbit: 845 x 856 km, 71.0° (Epoch: 03 May)

Date Brightness Start Highest point End Pass type
(mag) Time Alt. Az. Time Alt. Az. Time Alt. Az.
03 May 4.7 02:26:10 10° SE 02:29:49 18° E 02:33:40 10° ENE visible
03 May 2.8 04:08:06 12° SSW 04:13:20 84° ESE 04:19:05 10° NNE visible
04 May 4.7 02:14:05 11° SE 02:17:27 18° E 02:21:17 10° ENE visible
04 May 2.8 03:56:04 14° SSW 04:00:58 84° ESE 04:06:43 10° NNE visible
05 May 4.6 02:02:01 12° SE 02:05:05 18° E 02:08:55 10° ENE visible
05 May 2.8 03:44:01 16° SSW 03:48:36 84° ESE 03:54:21 10° NNE visible
06 May 4.6 01:49:56 13° SE 01:52:43 18° E 01:56:32 10° ENE visible
06 May 2.7 03:31:55 18° SSW 03:36:13 83° ESE 03:41:59 10° NNE visible
07 May 4.6 01:37:48 13° SE 01:40:21 18° E 01:44:10 10° ENE visible
07 May 2.7 03:19:48 20° SSW 03:23:52 83° ESE 03:29:37 10° NNE visible
08 May 4.5 01:25:39 14° SE 01:27:59 18° E 01:31:47 10° ENE visible
08 May 2.7 03:07:38 21° SSW 03:11:29 83° ESE 03:17:14 10° NNE visible
09 May 4.5 01:13:27 14° SE 01:15:37 18° E 01:19:25 10° ENE visible
09 May 2.7 02:55:26 23° SSW 02:59:07 83° ESE 03:04:52 10° NNE visible
10 May 4.5 01:01:13 15° SE 01:03:15 18° E 01:07:02 10° ENE visible
10 May 2.7 02:43:13 24° SSW 02:46:44 83° ESE 02:52:30 10° NNE visible
10 May 4.1 04:26:43 10° W 04:31:41 30° NW 04:36:39 10° NNE visible
11 May 4.4 00:48:58 15° SE 00:50:52 18° E 00:54:40 10° ENE visible
11 May 2.7 02:30:57 25° SSW 02:34:22 83° ESE 02:40:08 10° NE visible
11 May 4.1 04:14:20 10° W 04:19:19 30° NW 04:24:16 10° NNE visible
12 May 4.4 00:36:41 15° ESE 00:38:30 18° E 00:42:17 10° ENE visible
12 May 2.7 02:18:40 26° SSW 02:22:00 82° ESE 02:27:45 10° NE visible
12 May 4.1 04:01:57 10° W 04:06:56 30° NW 04:11:54 10° NNE visible
